Regional Weather Roundup
Issued by NWS

Home | Current Version | Previous Version | Graphics & Text | Print | Product List | Glossary On
Versions: 1 2 3 4 5 6 7 8 9 10 11 12 13 14 15 16 17 18 19 20 21 22 23 24 25 26 27 28 29 30 31 32 33 34 35 36 37 38 39 40 41 42 43 44 45 46 47 48 49 50
000
ASUS43 KOAX 241302
RWRNE

WEATHER ROUNDUP FOR NEBRASKA
NATIONAL WEATHER SERVICE OMAHA NE
800 AM CDT SUN MAY 24 2015

NOTES: SATELLITE DATA IS BEING USED TO AUGMENT CLOUD COVER ABOVE
       12000 FEET.
       "FAIR" INDICATES FEW OR NO CLOUDS BELOW 12,000 FEET WITH NO
       SIGNIFICANT WEATHER AND/OR OBSTRUCTIONS TO VISIBILITY.

  * THESE STATIONS DO NOT REPORT WEATHER SUCH AS RAIN...SNOW OR FOG.

NEZ001>004-019>022-054>056-241400-
NEBRASKA PANHANDLE

CITY           SKY/WX    TMP DP  RH WIND       PRES   REMARKS
SCOTTSBLUFF    CLOUDY    52  51  97 S3        29.90S
ALLIANCE       CLOUDY    52  50  93 NE7       29.88F
CHADRON        RAIN      52  51  97 E5        29.92S FOG
SIDNEY         PTSUNNY   49  49 100 NW3       29.90F
$$

NEZ057>060-069>072-079>082-241400-
SOUTHWEST NEBRASKA

CITY           SKY/WX    TMP DP  RH WIND       PRES   REMARKS
NORTH PLATTE   CLOUDY    57  55  93 E9        29.88F
IMPERIAL       CLOUDY    54  52  93 S9        29.89R
LEXINGTON      CLOUDY    58  58  98 CALM      29.89F
MCCOOK         CLOUDY    56  56 100 SE7       29.88S FOG
$$

NEZ005>010-023>029-035>040-094-241400-
NORTH CENTRAL NEBRASKA

CITY           SKY/WX    TMP DP  RH WIND       PRES   REMARKS
VALENTINE      LGT RAIN  55  54  96 E9        29.93S
AINSWORTH      DRIZZLE   55  55 100 E6        29.93F
BROKEN BOW     CLOUDY    59  57  93 E5        29.90F
ORD            FOG       58  57  97 NE3       29.89F VSB 1
$$

NEZ041-046>049-061>064-073>077-083>087-241400-
SOUTH CENTRAL NEBRASKA

CITY           SKY/WX    TMP DP  RH WIND       PRES   REMARKS
GRAND ISLAND   FOG       59  58  96 SE3       29.90F VSB 1/4
HASTINGS       LGT RAIN  59  58  96 SE5       29.89F VSB 1
KEARNEY *      CLOUDY    57  55  94 CALM      29.90S
$$

NEZ011>018-030>034-042>045-241400-
NORTHEAST NEBRASKA

CITY           SKY/WX    TMP DP  RH WIND       PRES   REMARKS
NORFOLK        HVY RAIN N/A N/A N/A E5        29.90R
BLAIR          CLOUDY    60  58  93 E10       29.88S FOG
COLUMBUS *     CLOUDY    57  54  88 E5        29.92F
FREMONT        LGT RAIN  61  59  94 E9        29.89S
TEKAMAH        CLOUDY    61  59  93 E8        29.89F
$$

NEZ050>053-065>068-078-088>093-241400-
SOUTHEAST NEBRASKA

CITY           SKY/WX    TMP DP  RH WIND       PRES   REMARKS
LINCOLN        CLOUDY    61  60  97 CALM      29.88S FOG
OMAHA EPPLEY   DRIZZLE   61  60  97 E10       29.88S FOG
FALLS CITY     CLOUDY    62  61  96 SE7       29.86F FOG
PLATTSMOUTH    CLOUDY    60  58  94 E6        29.88S FOG
$$

NEZ044-045-051>053-067-241400-
OMAHA AREA

CITY           SKY/WX    TMP DP  RH WIND       PRES   REMARKS
OMAHA EPPLEY   DRIZZLE   61  60  97 E10       29.88S FOG
BLAIR          CLOUDY    60  58  93 E10       29.88S FOG
FREMONT        LGT RAIN  61  59  94 E9        29.89S
OFFUTT AFB     CLOUDY    61  60  97 E6        29.87F FOG
PLATTSMOUTH    CLOUDY    60  58  94 E6        29.88S FOG
$$


USA.gov is the U.S. government's official web portal to all federal, state and local government web resources and services.